METEOR 2-5 DEB

Satellite information

Favourite Embed

Satellite Type and Status

DEBRISIN ORBIT

Key statistics

Satellite METEOR 2-5 DEB at a glance.

Uptime

16746

Days in orbit

Revolutions

≈ 14.3

Per day

Orbit

LEO

Low Earth Orbit

Inclination

81.2

Latest

Satellite identification and parameters

Extended collection of information and parameters for METEOR 2-5 DEB.

Object identification

Identified? True

Debris? True

Object name: METEOR 2-5 DEB

International designator: 1979-095CV

Object number (NORAD): 45513

Object ID (CCSDS): 45513

Country: COMMONWEALTH OF INDEPENDENT STATES (CIS)

Current information (Y/N): Y

RCS size: SMALL

Orbital parameters

Period: 100.821 minutes

Inclination: 81.2024 deg

SMA: 7175.66 km

Apoapsis: 799.577 km

Periapsis: 795.473 km

RAAN: 53.1367 deg

Eccentricy: 0.000286

Argument of periapsis: 36.7171 deg

Mean anomaly: 323.4205 deg

Mean motion: 14.28268859 rev/day

Mean motion (dot): 0.00014816 rev/day2

B* drag term: 0.0059292 1/REarth

Two-line elements (TLE)

Creation date: Jan. 28, 2025, 2:49 a.m.

Reference frame: TEME

Reference center: EARTH

Epoch: Oct. 14, 2024, 3:37 p.m. UTC

TLE line 0: 0 METEOR 2-5 DEB

TLE line 1: 1 45513U 79095CV 24288.65077789 .00014816 00000-0 59292-2 0 9990

TLE line 2: 2 45513 81.2024 53.1367 0002860 36.7171 323.4205 14.28268859577004

Live tracking on map

Real-time ground track for satellite METEOR 2-5 DEB.

In-orbit conjunctions

A list of the most updated potential collisions computed for object METEOR 2-5 DEB.

Target Orbit TCA Probability of collision Miss distance Type
THORAD AGENA D DEB SSO 2024-08-30 15:42:06 0.000109484 200.0 (m) DEBRIS
NOAA 16 DEB SSO 2024-08-28 03:13:52 0.000123117 142.0 (m) DEBRIS

Associated space launch

Second generation soviet meteorological satellite

METEOR 2-5 DEB was lifted into orbit during the mission ‘Vostok 8A92M | Meteor-2 5’, on board a Vostok 8A92M space rocket.

The launch took place on Oct. 31, 1979, 9:25 a.m. from 43/4 (43R).

For more information about the launch, click the button.

Launch to space Vostok 8A92M | Meteor-2 5
Vostok 8A92M | Meteor-2 5

Agency: N/A

Status: Launch Successful

Launch date: Oct. 31, 1979, 9:25 a.m. UTC

Rocket: Vostok 8A92M

Launch pad: 43/4 (43R)

Location: Plesetsk Cosmodrome, Russian Federation

...

Latest news about this satellite

There are no fresh news available about this satellite. Check back as we update our databases every day.


Newsletter sign-up

Weekly statistics, charts and insights to help you stay on top of the space industry.